Flag for Austria Weather past 2 weeks in Saalfelden am Steinernen Meer, Salzburg, Austria

Now
63 °F

Passing clouds.


Feels Like: 63 °F
Forecast: 53 / 74 °F
Wind: 2 mph from West

Location: Salzburg-Flughafen

Current Time: Jul 23, 2014 at 3:41:50 AM

Latest Report: Jul 23, 2014 at 2:50 AM


Visibility: 5 mi

Pressure: 29.98 "Hg

Humidity: 100%

Dew point: 63 °F

Location of Saalfelden am Steinernen MeerLocation

Historic Weather in Saalfelden am Steinernen Meer — Graph

°F

Saalfelden am Steinernen Meer temperature yesterday

Maximum temperature yesterday: 68 °F (at 5:50 PM)
Minimum temperature yesterday: 61 °F (at 12:20 AM)
Average temperature yesterday: 64 °F

Past Weeks' High & Low Weather Summary

 TemperatureHumidityPressure
High91 °F (Jul 19, 5:50 PM)100% (Jul 8, 4:50 AM)30.21 "Hg (Jul 8, 4:50 AM)
Low52 °F (Jul 9, 11:50 PM)26% (Jul 19, 5:20 PM)29.74 "Hg (Jul 8, 11:50 AM)
Average66 °F75%29.96 "Hg
* Reported Jul 8 1:20 AM — Jul 23 1:50 AM, Saalfelden am Steinernen Meer, Weather by CustomWeather, © 2014

Note: Actual official high and low records may vary slightly from our data, if they occured in-between our weather recording intervals... More about our weather records

Advertising

Saalfelden am Steinernen Meer weather history for previous 24 hours

 ConditionsComfort  
Time TempWeatherWind HumidityBarometerVisibility
1:50 AM
Jul 23
64 °FPassing clouds.1 mph94%29.98 "Hg6 mi
6:50 PM
Jul 22
66 °FBroken clouds.3 mph88%29.95 "HgN/A
6:20 PM66 °FLight rain. Broken clouds.3 mph88%29.95 "HgN/A
5:50 PM68 °FLight rain. Broken clouds.2 mph83%29.92 "HgN/A
5:20 PM66 °FLight rain. Broken clouds.2 mph88%29.92 "HgN/A
4:50 PM66 °FLight rain. Partly sunny.2 mph88%29.92 "HgN/A
4:20 PM66 °FLight rain. Broken clouds.5 mph88%29.92 "HgN/A
3:50 PM66 °FBroken clouds.3 mph83%29.92 "HgN/A
3:20 PM66 °FLight rain. Broken clouds.5 mph83%29.92 "HgN/A
2:50 PM66 °FLight rain. Broken clouds.5 mph83%29.92 "HgN/A
2:20 PM66 °FLight rain. Broken clouds.2 mph83%29.92 "HgN/A
1:50 PM66 °FBroken clouds.2 mph83%29.92 "HgN/A
1:20 PM66 °FLight rain. Broken clouds.2 mph83%29.92 "HgN/A
12:50 PM66 °FLight rain. Broken clouds.3 mph83%29.92 "HgN/A
12:20 PM66 °FLight rain. Broken clouds.2 mph83%29.92 "HgN/A
11:50 AM66 °FBroken clouds.1 mph83%29.92 "HgN/A
11:20 AM64 °FLight rain. Broken clouds.2 mph88%29.89 "HgN/A
10:50 AM64 °FLight rain. Broken clouds.3 mph88%29.89 "HgN/A
10:20 AM64 °FBroken clouds.2 mph83%29.89 "HgN/A
9:50 AM64 °FLight rain. Broken clouds.2 mph83%29.89 "HgN/A
9:20 AM64 °FLight rain. Broken clouds.2 mph83%29.89 "HgN/A
8:50 AM64 °FBroken clouds.2 mph83%29.89 "HgN/A
8:20 AM63 °FBroken clouds.3 mph94%29.86 "HgN/A
7:50 AM63 °FBroken clouds.3 mph94%29.86 "HgN/A
7:20 AM63 °FBroken clouds.6 mph94%29.86 "HgN/A
6:50 AM61 °FBroken clouds.6 mph100%29.86 "HgN/A
6:20 AM61 °FPartly cloudy.3 mph100%29.86 "HgN/A
5:50 AM61 °FPartly cloudy.6 mph100%29.86 "HgN/A
5:20 AM61 °FPartly cloudy.3 mph100%29.86 "HgN/A
4:50 AM61 °FPassing clouds.5 mph100%29.86 "Hg4 mi
4:20 AM61 °FPassing clouds.2 mph100%29.86 "Hg4 mi
3:50 AM61 °FPassing clouds.3 mph100%29.86 "Hg4 mi
3:20 AM61 °FPassing clouds.6 mph100%29.86 "Hg4 mi
Weather by CustomWeather, © 2014

See weather overviewHow to use our weather pages